Location: Chagrin Falls Park
(41.4139°N, 81.3865°W)
Time: 23:14:32
(UTC+00:00)

STARLINK-2651 - Pass Details

Date: 31 July 2021
Orbit: 546 x 548 km, 53.1° (Epoch: 20 September)

Event Time Altitude Azimuth Distance (km) Brightness Sun altitude
Rises 01:34:17 0° 308° (NW) 2,721 9.6 -8.9°
Reaches altitude 10° 01:36:32 10° 309° (NW) 1,825 7.9 -9.3°
Maximum altitude 01:40:41 83° 37° (NE) 557 3.6 -9.9°
Enters shadow 01:44:05 15° 126° (SE) 1,531 5.2 -10.4°
